Change the Weather History Date:

Friday, October 5, 2012

  Actual Average Record
Temperature  
Mean Temperature 72 °F 63 °F  
Max Temperature 83 °F 72 °F 96 °F (1941)
Min Temperature 61 °F 55 °F 37 °F (1935)
Degree Days  
Heating Degree Days 0 4  
Month to date heating degree days 2 17  
Since 1 July heating degree days 7 41  
Cooling Degree Days 7 2  
Month to date cooling degree days 31 12  
Year to date cooling degree days 1961 1525  
Growing Degree Days 22 (Base 50)    
Moisture  
Dew Point 57 °F    
Average Humidity 60    
Maximum Humidity 84    
Minimum Humidity 36    
Precipitation  
Precipitation 0.00 in 0.11 in 2.53 in (1932)
Month to date precipitation 0.44 0.54  
Year to date precipitation 23.44 30.66  
Snow  
Snow 0.00 in 0.00 in T in (1892)
Month to date snowfall 0.0 0.0  
Since 1 July snowfall 0.0 0.0  
Snow Depth 0.00 in    
Sea Level Pressure  
Sea Level Pressure 30.08 in    
Wind  
Wind Speed 5 mph (SSW)    
Max Wind Speed 14 mph    
Max Gust Speed 18 mph    
Visibility 10 miles    
Events      
T = Trace of Precipitation, MM = Missing Value Source: NWS Daily Summary

Daily Weather History Graph

Daily Weather History Graph

Search for Another Location

Airport or City:

Trip Planner

Search our weather history database for the weather conditions in past years. The results will help you decide how hot, cold, wet, or windy it might be!

Date:

Astronomy

Oct. 05, 2012 Rise Set
Actual Time 7:08 AM EDT 6:43 PM EDT
Civil Twilight 6:41 AM EDT 7:10 PM EDT
Nautical Twilight 6:10 AM EDT 7:41 PM EDT
Astronomical Twilight 5:39 AM EDT 8:12 PM EDT
Moon 10:08 PM EDT (10/5) 12:11 PM EDT (10/5)
Length of Visible Light 12h 28m
Length of Day
11h 35m
Waning Gibbous, 74% of the Moon is Illuminated
Oct 5
Waning Gibbous
Oct 8
Last Quarter
Oct 15
New
Oct 21
First Quarter
Oct 29
Full

Hourly Weather History & Observations

Time (EDT) Temp. Heat Index Dew Point Humidity Pressure Visibility Wind Dir Wind Speed Gust Speed Precip Events Conditions
12:52 AM 66.9 °F - 57.9 °F 73% 30.14 in 10.0 mi Calm Calm - N/A   Clear
1:52 AM 64.9 °F - 54.0 °F 68% 30.14 in 10.0 mi SW 4.6 mph - N/A   Clear
2:52 AM 64.0 °F - 55.0 °F 73% 30.14 in 10.0 mi WSW 3.5 mph - N/A   Clear
3:52 AM 64.4 °F - 55.4 °F 73% 30.13 in 10.0 mi Calm Calm - N/A   Clear
4:52 AM 64.0 °F - 57.0 °F 78% 30.14 in 10.0 mi Calm Calm - N/A   Clear
5:52 AM 62.1 °F - 55.0 °F 78% 30.14 in 10.0 mi Calm Calm - N/A   Clear
6:52 AM 63.0 °F - 57.0 °F 81% 30.14 in 10.0 mi Calm Calm - N/A   Clear
7:52 AM 63.0 °F - 57.9 °F 84% 30.14 in 10.0 mi SSW 4.6 mph - N/A   Partly Cloudy
8:52 AM 68.0 °F - 55.9 °F 65% 30.14 in 10.0 mi Calm Calm - N/A   Partly Cloudy
9:52 AM 70.0 °F - 55.9 °F 61% 30.15 in 10.0 mi ESE 3.5 mph - N/A   Partly Cloudy
10:52 AM 75.9 °F - 57.9 °F 54% 30.14 in 10.0 mi Variable 4.6 mph - N/A   Clear
11:52 AM 79.0 °F - 57.0 °F 47% 30.12 in 10.0 mi NNW 8.1 mph - N/A   Clear
12:52 PM 81.0 °F 80.8 °F 55.9 °F 42% 30.09 in 10.0 mi NNW 6.9 mph - N/A   Partly Cloudy
1:52 PM 79.0 °F - 57.0 °F 47% 30.06 in 10.0 mi Calm Calm - N/A   Scattered Clouds
2:52 PM 82.0 °F 81.2 °F 53.1 °F 37% 30.04 in 10.0 mi West 9.2 mph - N/A   Scattered Clouds
3:52 PM 81.0 °F 80.4 °F 53.1 °F 38% 30.02 in 10.0 mi SSW 10.4 mph - N/A   Scattered Clouds
4:52 PM 81.0 °F - 52.0 °F 36% 30.02 in 10.0 mi Calm Calm - N/A   Partly Cloudy
5:52 PM 79.0 °F - 53.1 °F 40% 30.01 in 10.0 mi SW 6.9 mph - N/A   Partly Cloudy
6:52 PM 73.9 °F - 57.9 °F 57% 30.00 in 10.0 mi SSW 5.8 mph - N/A   Partly Cloudy
7:52 PM 71.1 °F - 62.1 °F 73% 30.01 in 10.0 mi South 6.9 mph - N/A   Partly Cloudy
8:52 PM 70.0 °F - 63.0 °F 78% 30.01 in 10.0 mi South 5.8 mph - N/A   Clear
9:52 PM 70.0 °F - 59.0 °F 68% 30.00 in 10.0 mi South 9.2 mph - N/A   Clear
10:52 PM 69.1 °F - 60.1 °F 73% 29.98 in 10.0 mi South 11.5 mph - N/A   Clear
11:52 PM 68.0 °F - 60.1 °F 76% 29.97 in 10.0 mi South 9.2 mph - N/A   Clear